Linden, WI

6:02 PM CST on February 08, 2016 (GMT -0600)
Iowa County

Weather History for KMRJ - April, 2014

Change the Weather History Date:

Thursday, April 24, 2014

  Actual Average (KLNR) Record (KLNR)
Temperature  
Mean Temperature 46 °F -  
Max Temperature 55 °F 60 °F 78 °F (1998)
Min Temperature 37 °F 37 °F 25 °F (2015)
Degree Days  
Heating Degree Days 19    
Moisture  
Dew Point 40 °F    
Average Humidity 76    
Maximum Humidity 94    
Minimum Humidity 54    
Precipitation  
Precipitation 0.43 in - - ()
Sea Level Pressure  
Sea Level Pressure 29.79 in    
Wind  
Wind Speed 12 mph (ESE)    
Max Wind Speed 23 mph    
Max Gust Speed 30 mph    
Visibility 8 miles    
Events Rain    
Averages and records for this station are not official NWS values.
T = Trace of Precipitation, MM = Missing Value Source: NWS Daily Summary

Daily Weather History Graph

Daily Weather History Graph

Search for Another Location

Airport or City:

Trip Planner

Search our weather history database for the weather conditions in past years. The results will help you decide how hot, cold, wet, or windy it might be!

Date:

Astronomy

Apr. 24, 2014 Rise Set
Actual Time 6:05 AM CDT 7:53 PM CDT
Civil Twilight 5:34 AM CDT 8:24 PM CDT
Nautical Twilight 4:58 AM CDT 9:01 PM CDT
Astronomical Twilight 4:18 AM CDT 9:41 PM CDT
Moon 3:23 AM CDT (4/24) 3:02 PM CDT (4/24)
Length of Visible Light 14h 49m
Length of Day
13h 48m
Waning Crescent, 24% of the Moon is Illuminated
Apr 24
Waning Crescent
Apr 29
New
May 6
First Quarter
May 14
Full
May 21
Last Quarter

Hourly Weather History & Observations

Time (CDT) Temp. Windchill Dew Point Humidity Pressure Visibility Wind Dir Wind Speed Gust Speed Precip Events Conditions
12:15 AM 42.8 °F 38.0 °F 32.0 °F 66% 30.02 in 10.0 mi ESE 8.1 mph - N/A Rain Light Rain
12:35 AM 42.8 °F 37.0 °F 32.0 °F 66% 30.03 in 10.0 mi East 10.4 mph - N/A Rain Light Rain
12:55 AM 41.0 °F 34.3 °F 32.0 °F 70% 30.01 in 10.0 mi East 11.5 mph 17.3 mph N/A Rain Light Rain
1:15 AM 41.0 °F 32.5 °F 32.0 °F 70% 30.00 in 10.0 mi East 17.3 mph 24.2 mph N/A Rain Light Rain
1:55 AM 41.0 °F 33.9 °F 32.0 °F 70% 30.00 in 10.0 mi East 12.7 mph - N/A   Unknown
2:10 AM 41.0 °F 33.1 °F 32.0 °F 70% 29.99 in 10.0 mi East 15.0 mph - N/A   Overcast
2:35 AM 41.0 °F 34.3 °F 32.0 °F 70% 29.98 in 10.0 mi East 11.5 mph - N/A   Overcast
3:15 AM 39.2 °F 31.6 °F 32.0 °F 75% 29.97 in 10.0 mi East 12.7 mph - N/A Rain Light Rain
3:55 AM 37.4 °F 29.3 °F 32.0 °F 81% 29.96 in 10.0 mi East 12.7 mph 20.7 mph N/A   Overcast
4:15 AM 37.4 °F 28.5 °F 32.0 °F 81% 29.95 in 10.0 mi ESE 15.0 mph 18.4 mph N/A   Overcast
4:35 AM 37.4 °F 28.9 °F 32.0 °F 81% 29.93 in 10.0 mi East 13.8 mph 24.2 mph N/A   Overcast
4:55 AM 39.2 °F 31.6 °F 32.0 °F 75% 29.93 in 10.0 mi ESE 12.7 mph 19.6 mph N/A Rain Light Rain
5:15 AM 39.2 °F 31.6 °F 32.0 °F 75% 29.92 in 10.0 mi ESE 12.7 mph 18.4 mph N/A   Overcast
5:35 AM 41.0 °F 34.3 °F 32.0 °F 70% 29.91 in 10.0 mi East 11.5 mph - N/A   Overcast
5:55 AM 41.0 °F 34.3 °F 32.0 °F 70% 29.90 in 10.0 mi East 11.5 mph 18.4 mph N/A   Overcast
6:15 AM 41.0 °F 33.1 °F 32.0 °F 70% 29.89 in 10.0 mi East 15.0 mph 20.7 mph N/A   Overcast
6:35 AM 41.0 °F 33.9 °F 32.0 °F 70% 29.89 in 10.0 mi East 12.7 mph 20.7 mph N/A   Overcast
6:55 AM 42.8 °F 37.5 °F 32.0 °F 66% 29.90 in 10.0 mi East 9.2 mph 20.7 mph N/A   Overcast
7:15 AM 42.8 °F 36.6 °F 33.8 °F 70% 29.91 in 10.0 mi ESE 11.5 mph 21.9 mph N/A Rain Light Rain
7:35 AM 42.8 °F 35.1 °F 33.8 °F 70% 29.89 in 7.0 mi ESE 16.1 mph 21.9 mph N/A Rain Light Rain
7:55 AM 42.8 °F 34.8 °F 35.6 °F 76% 29.87 in 10.0 mi ESE 17.3 mph 21.9 mph N/A Rain Light Rain
8:15 AM 42.8 °F 35.1 °F 35.6 °F 76% 29.86 in 10.0 mi East 16.1 mph 25.3 mph N/A   Overcast
8:35 AM 42.8 °F 35.4 °F 35.6 °F 76% 29.86 in 10.0 mi East 15.0 mph 21.9 mph N/A   Overcast
8:55 AM 42.8 °F 35.4 °F 35.6 °F 76% 29.85 in 10.0 mi East 15.0 mph 20.7 mph N/A   Overcast
9:15 AM 44.6 °F 37.8 °F 35.6 °F 71% 29.84 in 10.0 mi ESE 15.0 mph 23.0 mph N/A   Overcast
9:35 AM 46.4 °F 39.8 °F 35.6 °F 66% 29.83 in 10.0 mi ESE 16.1 mph 24.2 mph N/A   Overcast
9:55 AM 46.4 °F 39.8 °F 35.6 °F 66% 29.81 in 10.0 mi ESE 16.1 mph 23.0 mph N/A   Overcast
10:15 AM 46.4 °F 39.5 °F 35.6 °F 66% 29.81 in 10.0 mi ESE 17.3 mph 21.9 mph N/A   Overcast
10:35 AM 48.2 °F - 35.6 °F 62% 29.80 in 10.0 mi ESE 19.6 mph 24.2 mph N/A   Overcast
10:55 AM 50.0 °F - 37.4 °F 62% 29.79 in 10.0 mi ESE 18.4 mph 26.5 mph N/A   Overcast
11:15 AM 51.8 °F - 37.4 °F 58% 29.78 in 10.0 mi ESE 18.4 mph 26.5 mph N/A   Overcast
11:35 AM 51.8 °F - 37.4 °F 58% 29.77 in 10.0 mi ESE 17.3 mph 24.2 mph N/A   Overcast
11:55 AM 53.6 °F - 37.4 °F 54% 29.77 in 10.0 mi ESE 18.4 mph 26.5 mph N/A   Overcast
12:15 PM 53.6 °F - 39.2 °F 58% 29.77 in 10.0 mi SE 17.3 mph 25.3 mph N/A   Overcast
12:35 PM 53.6 °F - 41.0 °F 62% 29.78 in 10.0 mi SSE 13.8 mph - N/A   Overcast
12:55 PM 53.6 °F - 41.0 °F 62% 29.77 in 10.0 mi SE 12.7 mph - N/A Rain Light Rain
1:15 PM 53.6 °F - 42.8 °F 67% 29.76 in 7.0 mi SSE 16.1 mph 20.7 mph N/A Rain Heavy Rain
1:35 PM 51.8 °F - 44.6 °F 76% 29.74 in 10.0 mi SE 12.7 mph - N/A Rain Light Rain
1:55 PM 53.6 °F - 44.6 °F 72% 29.73 in 10.0 mi SE 9.2 mph 17.3 mph N/A   Overcast
2:15 PM 53.6 °F - 44.6 °F 72% 29.73 in 10.0 mi SE 11.5 mph - 0.01 in Rain Light Rain
2:35 PM 53.6 °F - 44.6 °F 72% 29.72 in 10.0 mi SSE 13.8 mph - 0.01 in Rain Light Rain
2:55 PM 55.4 °F - 44.6 °F 67% 29.70 in 10.0 mi SE 17.3 mph 20.7 mph 0.01 in Rain Light Rain
3:15 PM 53.6 °F - 44.6 °F 72% 29.70 in 10.0 mi SSE 23.0 mph 29.9 mph N/A   Drizzle
3:35 PM 53.6 °F - 46.4 °F 77% 29.69 in 7.0 mi SE 13.8 mph 21.9 mph N/A Rain Light Rain
3:55 PM 53.6 °F - 46.4 °F 77% 29.68 in 7.0 mi SE 11.5 mph - N/A Rain Light Rain
4:15 PM 53.6 °F - 46.4 °F 77% 29.68 in 10.0 mi SSE 15.0 mph 18.4 mph N/A Rain Light Rain
4:35 PM 51.8 °F - 46.4 °F 82% 29.68 in 10.0 mi SE 15.0 mph - N/A Rain Light Rain
4:55 PM 51.8 °F - 46.4 °F 82% 29.68 in 5.0 mi SE 12.7 mph - N/A Rain Light Rain
5:15 PM 51.8 °F - 46.4 °F 82% 29.66 in 7.0 mi SE 13.8 mph - N/A   Overcast
5:35 PM 51.8 °F - 46.4 °F 82% 29.65 in 10.0 mi ESE 11.5 mph 19.6 mph N/A   Overcast
5:55 PM 51.8 °F - 46.4 °F 82% 29.65 in 7.0 mi SE 11.5 mph - N/A Rain Light Rain
6:15 PM 51.8 °F - 46.4 °F 82% 29.66 in 5.0 mi SE 9.2 mph - N/A Rain Light Rain
6:35 PM 51.8 °F - 46.4 °F 82% 29.68 in 4.0 mi Calm Calm - N/A Rain Rain
6:55 PM 51.8 °F - 46.4 °F 82% 29.68 in 2.5 mi Calm Calm - N/A Rain Light Rain
7:15 PM 50.0 °F - 48.2 °F 94% 29.67 in 3.0 mi ENE 3.5 mph - N/A Rain Light Rain
7:30 PM 50.0 °F - 48.2 °F 94% 29.67 in 3.0 mi East 3.5 mph - N/A Rain Rain
7:55 PM 50.0 °F - 48.2 °F 94% 29.67 in 3.0 mi East 5.8 mph - N/A Rain Rain
8:15 PM 50.0 °F - 48.2 °F 94% 29.67 in 4.0 mi ESE 4.6 mph - N/A Rain Rain
8:35 PM 50.0 °F - 48.2 °F 94% 29.68 in 3.0 mi ESE 4.6 mph - 0.01 in Rain Heavy Rain
8:55 PM 50.0 °F - 48.2 °F 94% 29.69 in 2.5 mi ESE 4.6 mph - 0.02 in Rain Heavy Rain
9:15 PM 50.0 °F - 48.2 °F 94% 29.68 in 1.8 mi ESE 9.2 mph - 0.02 in Rain Rain
9:30 PM 50.0 °F - 48.2 °F 94% 29.68 in 2.5 mi NE 3.5 mph - 0.07 in Rain Heavy Rain
9:55 PM 50.0 °F - 48.2 °F 94% 29.68 in 4.0 mi Calm Calm - 0.21 in Rain Light Rain
10:15 PM 50.0 °F - 48.2 °F 94% 29.68 in 3.0 mi Calm Calm - 0.07 in Rain Light Rain
10:35 PM 50.0 °F - 48.2 °F 94% 29.68 in 2.0 mi Calm Calm - 0.14 in Rain Light Rain
10:55 PM 50.0 °F - 48.2 °F 94% 29.68 in 0.8 mi West 5.8 mph - 0.18 in Rain Rain
11:15 PM 50.0 °F - 48.2 °F 94% 29.68 in 1.2 mi West 13.8 mph 18.4 mph 0.01 in Rain Light Rain
11:35 PM 50.0 °F - 46.4 °F 87% 29.69 in 2.0 mi NW 11.5 mph 16.1 mph 0.01 in   Overcast